TimeMST,TemperatureF,Dew PointF,Humidity,Sea Level PressureIn,VisibilityMPH,Wind Direction,Wind SpeedMPH,Gust SpeedMPH,PrecipitationIn,Events,Conditions,WindDirDegrees,DateUTC
12:53 AM,25.0,8.1,49,30.14,10.0,WNW,9.2,-,N/A,,Clear,290,2013-01-05 07:53:00
1:53 AM,25.0,8.1,49,30.16,10.0,WNW,5.8,-,N/A,,Clear,290,2013-01-05 08:53:00
3:53 AM,34.0,12.0,40,30.15,10.0,NW,19.6,-,N/A,,Clear,320,2013-01-05 10:53:00
4:53 AM,28.0,10.0,47,30.19,10.0,North,5.8,-,N/A,,Clear,360,2013-01-05 11:53:00
5:53 AM,28.9,12.0,49,30.21,10.0,NNW,13.8,20.7,N/A,,Clear,330,2013-01-05 12:53:00
6:53 AM,28.0,15.1,58,30.26,10.0,NNW,8.1,-,N/A,,Clear,340,2013-01-05 13:53:00
7:53 AM,25.0,12.9,60,30.28,10.0,Variable,4.6,-,N/A,,Clear,0,2013-01-05 14:53:00
8:53 AM,26.1,16.0,66,30.28,10.0,Calm,Calm,-,N/A,,Clear,0,2013-01-05 15:53:00
9:53 AM,30.9,18.0,59,30.29,10.0,North,13.8,25.3,N/A,,Clear,350,2013-01-05 16:53:00
10:53 AM,33.1,19.9,59,30.29,10.0,North,18.4,24.2,N/A,,Clear,360,2013-01-05 17:53:00
11:53 AM,34.0,19.9,56,30.28,10.0,West,8.1,-,N/A,,Clear,260,2013-01-05 18:53:00
12:53 PM,34.0,19.0,54,30.28,10.0,West,5.8,-,N/A,,Clear,280,2013-01-05 19:53:00
1:53 PM,34.0,16.0,48,30.25,10.0,South,9.2,-,N/A,,Clear,170,2013-01-05 20:53:00
2:53 PM,34.0,15.1,46,30.24,10.0,South,9.2,-,N/A,,Clear,170,2013-01-05 21:53:00
3:53 PM,28.9,14.0,54,30.25,10.0,SE,6.9,-,N/A,,Clear,140,2013-01-05 22:53:00
4:53 PM,21.0,12.0,68,30.31,10.0,West,4.6,-,N/A,,Clear,270,2013-01-05 23:53:00
5:53 PM,21.0,10.9,65,30.31,10.0,WSW,8.1,-,N/A,,Clear,250,2013-01-06 00:53:00
6:53 PM,23.0,10.0,58,30.30,10.0,SW,4.6,-,N/A,,Clear,230,2013-01-06 01:53:00
7:53 PM,23.0,10.0,58,30.30,10.0,SW,8.1,-,N/A,,Clear,230,2013-01-06 02:53:00
8:53 PM,26.1,9.0,49,30.27,10.0,South,5.8,-,N/A,,Clear,190,2013-01-06 03:53:00
9:53 PM,26.1,9.0,49,30.24,10.0,South,8.1,-,N/A,,Clear,190,2013-01-06 04:53:00
10:53 PM,24.1,9.0,53,30.21,10.0,South,6.9,-,N/A,,Clear,180,2013-01-06 05:53:00
11:53 PM,23.0,9.0,55,30.18,10.0,SE,4.6,-,N/A,,Clear,130,2013-01-06 06:53:00